Theta_e
341 339 336 335 337 337 337 338 340 339 337 333 334 341 341 341 339 337 334 331 328 325 327 327 330 330 332 334 335 333 332 333
340 340 336 334 335 337 337 337 337 340 339 337 337 335 340 340 338 337 336 333 330 329 324 325 328 331 328 328 332 333 333 332
335 340 337 335 334 336 336 336 336 336 335 333 333 335 337 338 338 338 338 338 333 330 328 324 323 327 329 328 329 331 331 334
329 337 340 337 336 337 336 334 335 336 334 338 340 340 343 343 341 339 337 337 336 332 330 329 325 325 325 325 326 328 329 329
325 329 337 337 337 337 338 336 336 336 336 336 336 338 339 336 337 338 337 338 338 337 335 333 332 328 327 326 326 326 328 330
323 324 328 335 337 337 337 340 340 339 340 340 339 339 339 337 341 341 340 339 339 338 337 336 336 335 331 329 329 328 328 327
322 323 323 325 329 331 332 336 339 344 342 340 341 341 339 342 343 342 342 341 341 340 339 339 338 338 337 334 332 332 331 330
321 322 322 322 323 323 326 325 325 331 343 346 344 341 339 336 342 344 344 343 343 340 340 340 339 338 338 338 336 335 334 334
322 321 321 321 322 321 321 324 327 325 324 331 346 346 346 340 339 344 345 345 343 341 340 339 338 338 339 340 339 338 337 336
321 321 321 321 321 321 322 322 321 330 328 327 326 331 347 346 343 346 344 346 346 345 343 340 339 338 338 340 340 339 338 338
321 321 321 321 321 322 322 322 325 326 325 324 323 322 331 347 346 347 347 344 346 347 346 343 341 339 338 337 338 338 339 338
321 321 322 322 323 323 323 325 325 324 325 328 325 326 326 342 349 348 345 345 344 345 347 345 341 339 338 337 335 336 339 339
319 319 320 321 321 323 324 324 327 330 333 334 332 329 330 331 341 346 345 342 343 342 346 345 342 339 337 336 336 338 340 340
319 318 318 318 319 321 322 323 324 329 333 335 337 337 335 331 335 340 341 341 341 343 345 346 343 340 340 337 337 341 341 339
318 319 320 319 320 320 321 320 321 322 327 331 332 332 335 336 334 331 341 342 342 343 343 343 345 345 344 341 343 345 342 340
317 318 319 320 319 319 319 319 319 319 321 325 327 321 323 328 334 337 337 340 343 343 343 344 346 347 345 345 346 347 342 341
316 316 317 318 319 320 319 319 318 319 319 321 327 322 320 321 333 336 340 342 343 344 344 344 346 346 346 347 346 345 344 338
314 314 314 314 314 318 317 318 318 319 319 318 322 323 320 318 323 336 337 340 341 344 344 345 345 346 346 348 347 344 341 336
313 313 313 313 313 314 315 318 317 316 315 317 319 324 325 319 320 325 335 338 339 341 344 344 345 346 346 347 345 343 341 340
Wind_Speed
36 36 38 36 37 38 37 36 38 37 36 36 40 36 35 33 35 32 34 34 31 34 36 34 32 32 34 32 31 29 30 28
36 36 37 36 36 41 38 37 40 40 39 41 41 43 38 38 36 36 34 36 34 32 37 37 35 36 36 34 34 33 31 29
35 38 35 40 36 41 42 39 38 43 43 41 41 39 39 38 38 37 38 38 38 37 36 40 39 39 39 36 35 35 34 29
30 36 41 37 41 36 43 42 40 40 43 40 37 35 32 36 39 39 40 40 41 40 39 39 42 42 43 41 39 38 38 35
32 35 40 42 41 41 38 43 43 40 39 42 42 43 44 44 42 42 41 41 43 44 42 41 41 43 45 45 43 42 40 39
33 26 25 42 40 42 39 35 40 42 42 42 43 45 44 43 40 42 43 42 44 44 45 44 44 43 45 46 45 44 44 43
29 33 26 26 31 38 40 43 39 40 46 46 45 45 46 43 40 43 44 45 45 45 45 45 45 45 45 46 45 44 43 43
41 34 33 35 35 28 35 48 49 50 45 46 48 50 48 47 46 44 44 45 47 48 47 46 46 45 46 45 47 46 45 42
25 23 18 17 33 42 40 30 47 48 49 54 42 46 51 52 51 46 45 45 47 47 46 45 45 45 45 45 45 46 44 44
11 9 14 24 25 24 24 38 40 38 42 44 45 46 46 52 51 48 48 42 43 44 45 45 44 43 44 45 46 46 45 43
14 16 19 22 19 23 20 19 21 22 28 33 38 39 44 48 52 47 43 48 41 41 42 45 45 44 43 45 45 44 44 43
5 8 9 3 1 6 14 15 17 22 22 21 26 32 35 40 44 47 45 44 44 43 44 47 47 45 44 45 45 44 44 41
6 9 12 12 10 9 11 23 18 16 13 17 23 28 30 35 42 41 42 44 44 46 47 48 49 48 44 45 46 44 41 40
12 15 17 15 16 15 9 6 8 10 9 14 17 20 23 34 37 36 41 42 43 43 45 46 49 49 45 45 45 42 41 39
22 21 15 13 11 11 14 16 16 13 11 14 15 15 19 25 27 33 35 39 41 43 44 47 46 47 44 43 42 44 41 38
23 25 22 17 19 21 22 19 20 20 19 18 19 19 19 19 24 26 29 35 37 38 41 44 44 44 44 45 47 46 41 38
23 27 23 24 25 22 25 28 30 24 26 21 21 20 20 21 21 25 27 31 36 37 40 43 44 45 48 51 52 47 43 40
27 13 18 20 21 20 24 27 25 24 23 26 24 25 22 22 20 24 27 31 34 35 39 42 43 45 48 48 48 46 46 40
18 16 20 18 26 26 23 22 21 21 24 25 26 24 26 26 23 23 28 31 33 35 38 40 42 45 47 44 45 46 44 37
Wind_Direction
209 209 198 202 193 201 213 214 207 216 214 211 210 211 212 221 218 226 222 235 233 225 227 226 224 226 224 222 234 236 236 233
209 211 204 201 199 198 210 216 210 212 216 214 212 215 213 220 225 224 227 231 238 233 229 232 223 227 231 232 226 233 237 241
209 206 205 200 202 202 206 220 221 213 221 221 221 219 221 225 226 228 227 229 237 239 236 233 232 228 233 232 230 232 235 232
217 206 204 202 202 206 205 216 226 224 223 220 221 220 222 223 227 231 231 231 234 242 242 238 234 233 235 237 233 233 237 239
245 211 205 201 202 207 207 213 222 230 230 227 222 221 218 229 233 233 236 234 235 239 243 244 240 235 236 239 239 237 238 238
246 248 212 206 204 205 210 212 217 227 234 233 233 223 227 234 226 230 233 238 239 240 242 245 245 240 238 239 240 239 239 242
249 249 244 232 204 206 214 216 218 225 230 237 234 236 233 227 228 226 231 234 239 242 244 245 246 246 241 241 240 242 243 243
231 242 242 249 248 243 230 228 228 224 223 231 235 236 238 239 232 228 227 230 232 244 245 244 245 245 246 239 240 239 241 244
216 220 239 244 239 247 253 244 231 231 229 227 227 241 236 239 241 231 232 232 236 243 247 249 248 247 242 242 236 241 238 242
266 231 260 263 256 250 252 254 244 226 232 236 235 231 241 241 238 236 229 233 235 239 243 249 249 245 243 238 238 237 241 241
271 268 264 223 252 250 259 258 233 232 244 254 258 250 234 241 242 232 234 232 232 233 236 245 248 245 242 240 239 239 236 238
331 312 338 236 254 253 257 267 259 263 253 260 256 255 243 237 240 240 235 236 231 230 232 239 246 246 244 240 239 235 232 232
300 328 329 310 325 305 261 259 255 259 265 267 257 247 248 242 239 242 246 240 237 230 230 234 243 247 245 240 233 229 226 225
333 289 284 308 292 294 332 342 342 269 265 264 261 271 264 249 241 245 245 246 240 234 230 227 236 243 242 239 230 222 225 226
325 320 303 283 304 324 311 308 301 312 291 280 282 284 272 273 268 249 244 245 244 237 233 234 230 234 237 234 226 222 227 227
298 297 297 297 282 283 290 299 299 286 288 287 284 296 291 282 264 260 252 244 245 240 236 233 228 227 228 226 222 221 223 222
286 282 287 289 277 282 276 275 267 284 282 282 285 286 285 284 271 255 251 248 245 240 237 233 227 227 226 226 225 222 220 222
295 295 319 308 328 313 290 288 273 267 267 279 278 284 283 283 281 256 249 248 244 241 235 230 230 227 228 226 230 224 221 220
336 341 338 312 301 303 308 291 284 285 282 285 280 273 275 279 280 275 259 247 246 241 237 234 230 226 225 223 231 224 222 218